Location: Colonia Mina de C?rbuni
(46.1667°N, 22.7167°E)
Time: 14:48:28
(UTC+00:00)

S-56A Canister/Altair - Pass Details

Date: 14 April 2024
Orbit: 638 x 2488 km, 38.9° (Epoch: 26 May)

Event Time Altitude Azimuth Distance (km) Brightness Sun altitude
Rises 18:12:49 0° 247° (WSW) 3,801 11.7 -10.1°
Reaches altitude 10° 18:15:10 10° 242° (WSW) 3,045 11.1 -10.5°
Maximum altitude 18:22:36 53° 168° (SSE) 1,800 9.1 -11.6°
Enters shadow 18:33:05 12° 97° (E) 4,290 10.8 -13.2°
